Date,Time,Wetness (Wet Dry or Ice),Wind Speed (m/s),Temperature (C),Humidity (%),Pressure (mb),Radiation (W/m^2)
2020-06-30,04:30:00,DRY,2.07,14.47,8.0,774.00,1.9
2020-06-30,04:35:00,DRY,1.95,14.50,7.5,774.00,1.5
2020-06-30,04:40:00,DRY,2.30,14.43,8.0,774.00,1.0
2020-06-30,04:45:00,DRY,2.10,14.55,7.0,774.00,2.3
2020-06-30,04:50:00,DRY,1.60,14.60,7.0,774.00,1.0
2020-06-30,04:55:00,DRY,1.20,14.65,7.0,774.00,0.8
2020-06-30,05:00:00,DRY,0.73,14.53,7.7,774.00,1.9
2020-06-30,05:05:00,DRY,1.45,14.45,7.5,774.00,1.0
2020-06-30,05:10:00,DRY,1.53,14.77,7.0,774.00,1.9
2020-06-30,05:15:00,DRY,1.50,14.70,7.0,774.00,2.1
2020-06-30,05:20:00,DRY,1.77,14.63,7.3,774.00,1.7
2020-06-30,05:25:00,DRY,2.00,14.70,7.5,774.00,1.4
2020-06-30,05:30:00,DRY,1.43,14.73,7.0,774.00,0.6
2020-06-30,05:35:00,DRY,1.30,14.45,8.5,774.00,0.7
2020-06-30,05:40:00,DRY,0.83,14.37,8.0,774.00,0.6
2020-06-30,05:45:00,DRY,0.45,14.60,7.0,774.00,1.9
2020-06-30,05:50:00,DRY,1.67,14.93,7.0,774.00,1.5
2020-06-30,05:55:00,DRY,1.60,15.00,6.5,774.00,2.1
2020-06-30,06:00:00,DRY,1.77,14.87,7.0,774.00,1.5
2020-06-30,06:05:00,DRY,2.25,15.05,7.0,774.00,3.3
2020-06-30,06:10:00,DRY,1.73,15.00,7.0,774.00,4.3
2020-06-30,06:15:00,DRY,1.75,15.00,7.0,774.00,7.2
2020-06-30,06:20:00,DRY,2.07,15.17,6.3,774.00,9.8
2020-06-30,06:25:00,DRY,2.00,15.10,7.0,774.00,25.4
2020-06-30,06:30:00,DRY,1.97,15.17,6.7,774.00,43.1
2020-06-30,06:35:00,DRY,1.80,15.30,6.5,774.00,42.9
2020-06-30,06:40:00,DRY,2.33,15.57,6.0,774.00,49.2
2020-06-30,06:45:00,DRY,1.85,15.70,6.0,774.00,111.8
2020-06-30,06:50:00,DRY,1.87,15.93,6.0,774.00,132.2
2020-06-30,06:55:00,DRY,1.75,15.75,6.5,774.00,152.9
2020-06-30,07:00:00,DRY,2.20,15.73,6.3,774.00,174.0
2020-06-30,07:05:00,DRY,2.35,15.75,6.0,774.00,195.5
2020-06-30,07:10:00,DRY,2.17,15.90,6.0,774.00,215.9
2020-06-30,07:15:00,DRY,2.25,15.85,6.5,774.00,236.7
2020-06-30,07:20:00,DRY,2.27,15.83,6.3,774.00,259.4
2020-06-30,07:25:00,DRY,2.25,16.10,6.5,774.00,281.9
2020-06-30,07:30:00,DRY,2.90,15.90,7.0,774.00,303.4
2020-06-30,07:35:00,DRY,2.75,15.90,7.0,774.00,325.7
2020-06-30,07:40:00,DRY,2.23,16.23,6.7,774.00,348.9
2020-06-30,07:45:00,DRY,1.80,16.45,7.0,774.00,370.2
2020-06-30,07:50:00,DRY,1.43,16.67,7.0,775.00,393.1
2020-06-30,07:55:00,DRY,0.35,17.15,7.0,774.50,415.0
2020-06-30,08:00:00,DRY,1.40,17.55,6.0,775.00,437.4
2020-06-30,08:05:00,DRY,0.80,17.75,6.5,774.50,459.4
2020-06-30,08:10:00,DRY,0.83,17.87,7.7,774.00,481.4
2020-06-30,08:15:00,DRY,1.05,18.20,7.5,774.00,503.7
2020-06-30,08:20:00,DRY,1.40,18.40,8.3,774.00,525.0
2020-06-30,08:25:00,DRY,0.95,18.15,11.0,774.00,547.2
2020-06-30,08:30:00,DRY,0.80,18.47,8.0,774.00,568.1
2020-06-30,08:35:00,DRY,1.05,18.25,6.5,774.00,589.1
2020-06-30,08:40:00,DRY,1.07,18.40,9.0,774.00,611.0
2020-06-30,08:45:00,DRY,1.35,18.35,7.5,774.00,631.2
2020-06-30,08:50:00,DRY,1.03,18.10,7.3,774.00,650.5
2020-06-30,08:55:00,DRY,0.25,18.05,9.0,774.00,671.5
2020-06-30,09:00:00,DRY,1.17,18.23,13.7,774.00,691.5
2020-06-30,09:05:00,DRY,1.15,18.55,12.0,774.00,711.5
2020-06-30,09:10:00,DRY,0.53,18.53,9.0,774.00,730.5
2020-06-30,09:15:00,DRY,0.90,18.70,8.5,774.00,751.5
2020-06-30,09:20:00,DRY,0.73,18.93,9.3,774.00,769.4
2020-06-30,09:25:00,DRY,0.65,19.20,7.5,774.00,788.5
2020-06-30,09:30:00,DRY,0.73,19.07,7.7,774.00,806.7
2020-06-30,09:35:00,DRY,1.05,18.85,8.0,774.50,824.5
2020-06-30,09:40:00,DRY,1.00,19.00,11.0,774.67,841.4
2020-06-30,09:45:00,DRY,0.70,18.80,8.5,774.00,860.0
2020-06-30,09:50:00,DRY,1.13,18.90,8.0,774.67,877.5
2020-06-30,09:55:00,DRY,0.80,18.75,8.5,775.00,893.3
2020-06-30,10:00:00,DRY,1.00,18.77,8.3,775.00,909.1
2020-06-30,10:05:00,DRY,1.70,18.80,8.5,775.00,924.5
2020-06-30,10:10:00,DRY,0.83,19.13,10.3,775.00,939.8
2020-06-30,10:15:00,DRY,1.35,19.30,9.5,775.00,956.5
2020-06-30,10:20:00,DRY,0.95,19.35,8.5,775.00,973.7
2020-06-30,10:25:00,DRY,1.20,19.35,9.5,775.00,986.7
2020-06-30,10:30:00,DRY,1.23,19.20,8.7,775.00,1000.1
2020-06-30,10:35:00,DRY,0.75,18.85,9.0,775.00,1013.7
2020-06-30,10:40:00,DRY,1.50,18.53,10.0,775.00,1027.0
2020-06-30,10:45:00,DRY,0.95,18.80,11.5,775.00,1040.5
2020-06-30,10:50:00,DRY,0.80,19.03,12.3,775.00,1051.7
2020-06-30,10:55:00,DRY,1.60,19.00,13.5,775.00,1066.0
2020-06-30,11:00:00,DRY,1.60,19.17,13.7,775.00,1077.8
2020-06-30,11:05:00,DRY,1.55,19.20,13.0,775.00,1088.9
2020-06-30,11:10:00,DRY,1.77,18.63,12.0,775.00,1100.0
2020-06-30,11:15:00,DRY,1.95,18.45,12.0,775.00,1107.5
2020-06-30,11:20:00,DRY,1.33,18.70,13.0,775.00,1119.9
2020-06-30,11:25:00,DRY,2.70,18.80,12.5,775.00,1128.8
2020-06-30,11:30:00,DRY,1.43,19.13,12.7,775.00,1137.7
2020-06-30,11:35:00,DRY,1.25,18.50,11.5,775.00,1146.5
2020-06-30,11:40:00,DRY,1.73,18.80,13.0,775.00,1154.8
2020-06-30,11:45:00,DRY,1.25,18.90,15.0,775.00,1162.5
2020-06-30,11:50:00,DRY,1.33,18.97,12.3,775.00,1168.8
2020-06-30,11:55:00,DRY,2.10,18.85,13.0,775.00,1176.8
2020-06-30,12:00:00,DRY,2.00,19.17,12.0,775.00,1181.0
2020-06-30,12:05:00,DRY,1.80,18.95,12.0,775.00,1187.2
2020-06-30,12:10:00,DRY,1.93,19.20,11.3,775.33,1190.7
2020-06-30,12:15:00,DRY,1.65,19.35,10.5,775.00,1195.2
2020-06-30,12:20:00,DRY,2.77,19.40,11.0,775.00,1199.6
2020-06-30,12:25:00,DRY,1.40,19.25,10.5,775.00,1204.8
2020-06-30,12:30:00,DRY,1.50,19.70,11.0,775.00,1207.8
2020-06-30,12:35:00,DRY,1.50,19.55,10.5,775.00,1209.1
2020-06-30,12:40:00,DRY,2.13,19.43,12.3,775.00,1211.7
2020-06-30,12:45:00,DRY,1.25,19.50,14.5,775.00,1211.4
2020-06-30,12:50:00,DRY,2.20,19.77,11.3,775.00,1214.0
2020-06-30,12:55:00,DRY,2.30,19.55,10.5,775.00,1213.7
2020-06-30,13:00:00,DRY,1.60,19.50,14.0,775.00,1215.5
2020-06-30,13:05:00,DRY,0.85,19.80,15.0,775.00,1217.7
2020-06-30,13:10:00,DRY,1.93,19.73,15.7,775.00,1216.7
2020-06-30,13:15:00,DRY,1.15,19.80,14.0,775.00,1214.8
2020-06-30,13:20:00,DRY,2.00,20.37,15.7,775.00,1215.4
2020-06-30,13:25:00,DRY,1.35,20.55,18.5,775.00,1215.0
2020-06-30,13:30:00,DRY,2.80,20.30,13.0,775.00,1212.1
2020-06-30,13:35:00,DRY,3.40,19.10,17.0,775.00,1212.2
2020-06-30,13:40:00,DRY,1.60,18.93,14.3,775.00,1209.5
2020-06-30,13:45:00,DRY,0.80,19.15,15.5,775.00,1208.6
2020-06-30,13:50:00,DRY,2.20,19.37,14.0,775.00,1206.2
2020-06-30,13:55:00,DRY,1.80,19.15,14.0,775.00,1202.3
2020-06-30,14:00:00,DRY,1.47,19.40,15.0,775.00,1199.4
2020-06-30,14:05:00,DRY,1.10,19.50,14.5,775.00,1198.3
2020-06-30,14:10:00,DRY,2.07,19.57,15.0,775.00,1191.4
2020-06-30,14:15:00,DRY,3.30,19.25,16.5,775.00,1187.4
2020-06-30,14:20:00,DRY,1.47,19.10,15.7,775.00,1180.3
2020-06-30,14:25:00,DRY,1.80,18.65,18.0,775.00,1177.2
2020-06-30,14:30:00,DRY,2.00,18.93,17.7,775.00,1169.5
2020-06-30,14:35:00,DRY,2.05,19.40,14.5,775.00,1164.2
2020-06-30,14:40:00,DRY,2.93,18.87,13.0,775.00,1157.1
2020-06-30,14:45:00,DRY,1.00,18.95,12.5,775.00,1151.3
2020-06-30,14:50:00,DRY,0.93,19.13,12.7,775.00,1141.8
2020-06-30,14:55:00,DRY,2.00,19.50,13.5,775.00,1132.7
2020-06-30,15:00:00,DRY,2.27,19.50,14.3,775.00,1122.0
2020-06-30,15:05:00,DRY,2.35,19.40,12.0,775.00,1112.4
2020-06-30,15:10:00,DRY,1.33,19.40,12.0,775.00,1103.8
2020-06-30,15:15:00,DRY,1.85,19.45,13.0,775.00,1090.0
2020-06-30,15:20:00,DRY,0.93,19.47,13.7,775.00,1081.4
2020-06-30,15:25:00,DRY,1.25,19.80,14.5,775.00,1071.8
2020-06-30,15:30:00,DRY,1.53,19.73,12.0,775.00,1058.4
2020-06-30,15:35:00,DRY,2.10,19.20,11.5,775.00,1046.0
2020-06-30,15:40:00,DRY,2.23,18.87,10.7,775.00,1032.3
2020-06-30,15:45:00,DRY,1.85,19.40,11.5,775.00,1017.0
2020-06-30,15:50:00,DRY,2.13,19.43,10.7,775.00,1005.2
2020-06-30,15:55:00,DRY,0.80,19.20,8.0,775.00,992.3
2020-06-30,16:00:00,DRY,0.93,19.60,8.7,775.00,976.8
2020-06-30,16:05:00,DRY,2.90,19.20,8.0,775.00,962.9
2020-06-30,16:10:00,DRY,1.30,19.17,8.7,775.00,947.9
2020-06-30,16:15:00,DRY,1.40,19.70,8.5,775.00,933.0
2020-06-30,16:20:00,DRY,1.70,19.73,8.3,775.00,916.4
2020-06-30,16:25:00,DRY,1.45,19.95,8.0,775.00,900.9
2020-06-30,16:30:00,DRY,2.63,19.40,8.7,775.00,884.2
2020-06-30,16:35:00,DRY,0.95,19.50,8.5,775.00,866.1
2020-06-30,16:40:00,DRY,2.10,19.17,8.3,775.00,850.0
2020-06-30,16:45:00,DRY,1.55,18.95,8.5,775.00,831.5
2020-06-30,16:50:00,DRY,1.20,19.23,9.0,775.00,815.0
2020-06-30,16:55:00,DRY,2.15,19.05,9.0,775.00,795.5
2020-06-30,17:00:00,DRY,2.20,18.93,8.7,775.00,777.1
2020-06-30,17:05:00,DRY,1.60,18.60,8.5,775.00,757.6
2020-06-30,17:10:00,DRY,2.30,19.07,8.7,775.00,737.5
2020-06-30,17:15:00,DRY,2.35,19.30,9.0,775.00,719.5
2020-06-30,17:20:00,DRY,2.90,19.17,9.3,775.00,699.1
2020-06-30,17:25:00,DRY,2.35,19.05,9.5,775.00,678.8
2020-06-30,17:30:00,DRY,2.27,19.03,10.0,775.00,659.2
2020-06-30,17:35:00,DRY,1.95,18.85,10.0,775.00,637.9
2020-06-30,17:40:00,DRY,2.07,18.93,9.0,775.00,617.5
2020-06-30,17:45:00,DRY,1.80,19.30,9.5,775.00,596.5
2020-06-30,17:50:00,DRY,1.40,19.40,8.0,775.00,576.1
2020-06-30,17:55:00,DRY,1.85,18.85,8.0,775.00,553.1
2020-06-30,18:00:00,DRY,1.77,19.20,8.3,775.00,531.6
2020-06-30,18:05:00,DRY,2.05,18.80,8.0,775.00,510.1
2020-06-30,18:10:00,DRY,2.43,18.93,8.0,775.00,488.1
2020-06-30,18:15:00,DRY,2.05,19.00,8.0,775.00,466.1
2020-06-30,18:20:00,DRY,2.23,18.87,7.7,775.00,442.9
2020-06-30,18:25:00,DRY,1.95,18.55,7.0,775.00,421.1
2020-06-30,18:30:00,DRY,3.20,18.37,8.0,775.00,397.8
2020-06-30,18:35:00,DRY,3.25,18.05,8.0,775.00,376.9
2020-06-30,18:40:00,DRY,2.23,18.13,8.3,775.00,354.2
2020-06-30,18:45:00,DRY,2.20,18.40,7.5,775.00,332.1
2020-06-30,18:50:00,DRY,2.07,18.33,7.7,775.00,310.0
2020-06-30,18:55:00,DRY,2.55,18.40,7.0,775.00,289.2
2020-06-30,19:00:00,DRY,2.43,18.27,7.3,775.00,268.9
2020-06-30,19:05:00,DRY,3.00,18.00,7.5,775.00,248.3
2020-06-30,19:10:00,DRY,2.10,18.10,7.3,775.00,228.2
2020-06-30,19:15:00,DRY,3.70,17.90,6.5,775.00,206.1
2020-06-30,19:20:00,DRY,2.40,17.93,7.0,775.00,188.3
2020-06-30,19:25:00,DRY,1.75,17.90,7.0,775.00,168.9
2020-06-30,19:30:00,DRY,1.57,17.87,7.0,775.00,150.3
2020-06-30,19:35:00,DRY,1.05,17.70,7.0,775.00,130.8
2020-06-30,19:40:00,DRY,2.73,17.70,7.0,775.00,105.0
2020-06-30,19:45:00,DRY,3.65,17.60,6.0,775.00,83.5
2020-06-30,19:50:00,DRY,4.10,17.43,6.3,775.00,62.3
2020-06-30,19:55:00,DRY,2.90,17.30,7.0,775.00,45.7
2020-06-30,20:00:00,DRY,2.57,17.33,6.7,775.00,35.4
2020-06-30,20:05:00,DRY,2.85,17.30,6.5,775.00,24.5
2020-06-30,20:10:00,DRY,3.53,17.20,6.7,775.00,16.9
2020-06-30,20:15:00,DRY,4.30,17.05,6.5,775.00,12.1
2020-06-30,20:20:00,DRY,4.13,16.80,7.0,775.00,6.6
2020-06-30,20:25:00,DRY,3.45,16.65,7.0,775.00,3.3
2020-06-30,20:30:00,DRY,4.07,16.40,7.3,775.00,1.8
2020-06-30,20:35:00,DRY,4.55,16.30,7.0,775.00,1.7
2020-06-30,20:40:00,DRY,4.40,16.40,7.0,775.00,1.3
2020-06-30,20:45:00,DRY,4.95,16.40,6.5,775.00,1.7
2020-06-30,20:50:00,DRY,5.33,16.60,6.3,775.00,1.0
2020-06-30,20:55:00,DRY,5.60,16.65,6.5,775.00,1.2
2020-06-30,21:00:00,DRY,5.27,16.67,6.0,775.00,1.2
2020-06-30,21:05:00,DRY,5.00,16.70,6.0,775.00,1.0
2020-06-30,21:10:00,DRY,5.07,16.57,6.3,775.00,1.1
2020-06-30,21:15:00,DRY,5.30,16.60,6.0,775.00,1.5
2020-06-30,21:20:00,DRY,4.23,16.43,7.0,775.33,1.0
2020-06-30,21:25:00,DRY,3.85,16.20,7.0,775.50,1.0
2020-06-30,21:30:00,DRY,3.87,16.20,7.3,776.00,1.3
2020-06-30,21:35:00,DRY,3.55,16.05,7.5,776.00,2.2
2020-06-30,21:40:00,DRY,4.87,16.07,7.0,776.00,1.5
2020-06-30,21:45:00,DRY,5.05,16.40,7.0,776.00,1.4
2020-06-30,21:50:00,DRY,5.07,16.47,6.0,776.00,1.8
2020-06-30,21:55:00,DRY,5.35,16.65,6.0,776.00,1.1
2020-06-30,22:00:00,DRY,5.17,16.70,6.3,776.00,1.3
2020-06-30,22:05:00,DRY,5.30,16.55,6.5,775.50,1.2
2020-06-30,22:10:00,DRY,5.47,16.60,6.0,776.00,1.2
2020-06-30,22:15:00,DRY,5.65,16.80,6.0,776.00,1.6
2020-06-30,22:20:00,DRY,6.13,16.77,6.0,776.00,1.0
2020-06-30,22:25:00,DRY,4.30,16.60,6.0,776.00,1.2
2020-06-30,22:30:00,DRY,6.00,16.60,6.0,776.00,0.7
2020-06-30,22:35:00,DRY,5.40,16.65,6.0,776.00,0.9
2020-06-30,22:40:00,DRY,5.33,16.60,6.0,776.00,1.0
2020-06-30,22:45:00,DRY,5.65,16.65,6.0,776.00,1.1
2020-06-30,22:50:00,DRY,5.27,16.77,5.7,776.00,1.3
2020-06-30,22:55:00,DRY,5.05,16.85,5.5,776.00,1.1
2020-06-30,23:00:00,DRY,4.33,16.93,5.0,776.00,1.1
2020-06-30,23:05:00,DRY,5.50,16.70,6.0,776.00,1.1
2020-06-30,23:10:00,DRY,6.20,17.17,5.3,776.00,1.0
2020-06-30,23:15:00,DRY,4.55,16.90,5.5,776.00,1.1
2020-06-30,23:20:00,DRY,5.90,17.20,5.0,776.00,0.8
2020-06-30,23:25:00,DRY,5.55,17.20,5.0,776.00,1.2
2020-06-30,23:30:00,DRY,5.90,17.27,5.0,776.00,1.3
2020-06-30,23:35:00,DRY,3.30,17.00,6.0,776.00,1.4
2020-06-30,23:40:00,DRY,5.53,17.07,5.3,776.00,2.1
2020-06-30,23:45:00,DRY,3.80,16.95,5.5,776.00,1.6
2020-06-30,23:50:00,DRY,5.20,16.83,5.7,776.00,2.0
2020-06-30,23:55:00,DRY,4.15,16.70,6.0,776.00,1.5
2020-07-01,00:00:00,DRY,3.73,16.60,6.0,776.00,1.5
2020-07-01,00:05:00,DRY,5.70,16.35,6.0,776.00,1.1
2020-07-01,00:10:00,DRY,5.70,16.43,6.0,776.00,1.0
2020-07-01,00:15:00,DRY,4.40,16.45,6.0,776.00,1.1
2020-07-01,00:20:00,DRY,4.77,16.67,6.0,776.00,0.9
2020-07-01,00:25:00,DRY,6.15,16.80,6.0,776.00,1.1
2020-07-01,00:30:00,DRY,6.17,16.60,6.0,776.00,1.1
2020-07-01,00:35:00,DRY,6.70,16.45,6.0,776.00,0.9
2020-07-01,00:40:00,DRY,7.30,16.53,6.0,775.67,0.8
2020-07-01,00:45:00,DRY,6.25,16.30,6.0,776.00,1.4
2020-07-01,00:50:00,DRY,4.73,16.37,6.0,775.67,1.3
2020-07-01,00:55:00,DRY,6.25,16.50,6.0,775.50,1.2
2020-07-01,01:00:00,DRY,6.90,16.77,5.7,775.33,1.2
2020-07-01,01:05:00,DRY,8.35,17.00,5.0,775.50,1.2
2020-07-01,01:10:00,DRY,5.03,17.20,5.0,775.00,1.2
2020-07-01,01:15:00,DRY,3.90,17.00,5.0,775.00,1.4
2020-07-01,01:20:00,DRY,5.50,16.87,5.0,775.00,1.7
2020-07-01,01:25:00,DRY,6.40,16.70,6.0,775.00,1.4
2020-07-01,01:30:00,DRY,5.90,16.70,5.7,775.00,1.0
2020-07-01,01:35:00,DRY,6.95,16.85,5.5,775.00,1.2
2020-07-01,01:40:00,DRY,5.23,16.63,5.7,775.00,1.0
2020-07-01,01:45:00,DRY,5.60,16.75,5.5,775.00,0.9
2020-07-01,01:50:00,DRY,5.47,16.60,6.0,775.00,1.2
2020-07-01,01:55:00,DRY,5.70,17.20,4.5,775.00,0.6
2020-07-01,02:00:00,DRY,5.50,16.87,5.3,775.00,1.2
2020-07-01,02:05:00,DRY,4.10,16.70,6.0,775.00,1.0
2020-07-01,02:10:00,DRY,5.63,16.80,5.3,775.00,1.0
2020-07-01,02:15:00,DRY,6.00,16.70,6.0,775.00,0.7
2020-07-01,02:20:00,DRY,4.67,16.43,6.0,775.00,1.3
2020-07-01,02:25:00,DRY,4.85,16.30,6.0,775.00,0.9
2020-07-01,02:30:00,DRY,5.77,16.17,6.3,775.00,1.1
2020-07-01,02:35:00,DRY,5.75,16.00,7.0,775.00,1.4
2020-07-01,02:40:00,DRY,6.07,16.23,6.0,775.00,1.1
2020-07-01,02:45:00,DRY,6.70,16.15,6.0,775.00,1.0
2020-07-01,02:50:00,DRY,5.43,16.10,6.3,775.00,0.9
2020-07-01,02:55:00,DRY,6.75,16.40,6.0,775.00,0.6
2020-07-01,03:00:00,DRY,6.53,16.40,6.0,775.00,1.3
2020-07-01,03:05:00,DRY,5.25,16.25,6.0,775.00,1.2
2020-07-01,03:10:00,DRY,6.53,16.43,6.0,775.00,1.0
2020-07-01,03:15:00,DRY,5.90,16.45,5.5,775.00,1.4
2020-07-01,03:20:00,DRY,7.27,16.50,6.0,775.00,1.2
2020-07-01,03:25:00,DRY,5.55,16.50,6.0,775.00,2.2
2020-07-01,03:30:00,DRY,6.57,16.70,5.3,775.00,1.4
2020-07-01,03:35:00,DRY,5.40,16.70,5.5,775.00,1.2
2020-07-01,03:40:00,DRY,4.33,16.70,5.0,775.00,1.2
2020-07-01,03:45:00,DRY,5.85,16.55,5.5,775.00,1.2
2020-07-01,03:50:00,DRY,6.83,16.60,5.3,774.67,1.2
2020-07-01,03:55:00,DRY,5.30,16.35,5.5,775.00,1.4
2020-07-01,04:00:00,DRY,4.80,16.33,5.7,775.00,1.3
2020-07-01,04:05:00,DRY,8.65,16.80,5.0,775.00,1.2
2020-07-01,04:10:00,DRY,6.70,17.13,4.3,775.00,1.2
2020-07-01,04:15:00,DRY,9.30,16.90,4.5,775.00,0.9
2020-07-01,04:20:00,DRY,6.97,16.93,5.0,775.00,1.3
2020-07-01,04:25:00,DRY,6.35,16.80,5.5,775.00,1.2
2020-07-01,04:30:00,DRY,5.77,16.80,5.0,775.00,1.2
2020-07-01,04:35:00,DRY,6.25,16.75,5.5,775.00,1.1
2020-07-01,04:40:00,DRY,6.07,16.53,6.0,775.00,1.4
2020-07-01,04:45:00,DRY,6.20,16.85,5.0,775.00,1.0
2020-07-01,04:50:00,DRY,7.17,16.80,5.0,775.00,1.2
2020-07-01,04:55:00,DRY,5.60,16.40,6.0,775.00,1.1
2020-07-01,05:00:00,DRY,5.77,16.33,6.0,775.00,1.6
2020-07-01,05:05:00,DRY,8.50,16.80,5.0,775.00,1.5
2020-07-01,05:10:00,DRY,5.47,16.63,5.3,775.00,1.2
2020-07-01,05:15:00,DRY,5.70,16.75,5.0,775.00,1.4
2020-07-01,05:20:00,DRY,7.97,16.83,5.0,775.00,1.3
2020-07-01,05:25:00,DRY,7.20,17.00,5.0,775.00,1.3
2020-07-01,05:30:00,DRY,5.87,16.70,5.0,775.00,1.1
2020-07-01,05:35:00,DRY,4.70,16.70,5.0,775.00,1.9
2020-07-01,05:40:00,DRY,7.63,16.83,5.0,775.00,1.5
2020-07-01,05:45:00,DRY,6.15,16.90,5.0,775.00,1.2
2020-07-01,05:50:00,DRY,6.43,16.80,5.0,775.00,1.4
2020-07-01,05:55:00,DRY,7.40,17.15,5.0,775.00,1.1
2020-07-01,06:00:00,DRY,5.80,17.07,5.0,775.00,1.5
2020-07-01,06:05:00,DRY,6.25,17.05,5.0,775.00,2.5
2020-07-01,06:10:00,DRY,7.60,17.17,4.7,775.00,3.8
2020-07-01,06:15:00,DRY,7.15,17.15,5.0,775.00,5.1
2020-07-01,06:20:00,DRY,5.30,17.00,5.0,775.00,7.0
2020-07-01,06:25:00,DRY,4.15,16.90,5.0,775.00,11.8
2020-07-01,06:30:00,DRY,5.93,16.83,5.0,775.00,18.2
2020-07-01,06:35:00,DRY,4.70,16.75,5.0,775.50,25.9
2020-07-01,06:40:00,DRY,4.57,16.27,6.0,775.67,35.2
2020-07-01,06:45:00,DRY,5.90,16.70,5.5,775.00,49.8
2020-07-01,06:50:00,DRY,5.90,16.90,5.0,776.00,65.6
2020-07-01,06:55:00,DRY,6.40,16.95,5.0,776.00,82.7
2020-07-01,07:00:00,DRY,7.70,17.10,5.0,776.00,99.3
2020-07-01,07:05:00,DRY,5.45,17.15,5.0,776.00,118.3
2020-07-01,07:10:00,DRY,5.10,17.17,5.0,776.00,138.3
2020-07-01,07:15:00,DRY,4.95,16.90,5.0,776.00,159.4
2020-07-01,07:20:00,DRY,5.83,17.17,5.0,776.00,181.7
2020-07-01,07:25:00,DRY,5.55,17.55,5.0,776.00,203.9
2020-07-01,07:30:00,DRY,6.90,17.57,5.0,776.00,224.3
2020-07-01,07:35:00,DRY,7.00,17.50,5.0,776.00,249.6
2020-07-01,07:40:00,DRY,6.00,17.60,5.0,776.00,272.5
2020-07-01,07:45:00,DRY,5.50,17.65,5.0,776.00,298.1
2020-07-01,07:50:00,DRY,7.13,17.70,5.0,776.00,319.5
2020-07-01,07:55:00,DRY,7.15,17.65,5.0,776.00,343.5
2020-07-01,08:00:00,DRY,6.67,17.77,5.0,776.00,364.8
2020-07-01,08:05:00,DRY,4.45,17.80,5.0,776.00,392.9
2020-07-01,08:10:00,DRY,5.80,17.93,5.0,776.00,420.2
2020-07-01,08:15:00,DRY,4.85,18.00,5.0,776.00,441.5
2020-07-01,08:20:00,DRY,4.97,17.87,5.0,776.00,464.3
2020-07-01,08:25:00,DRY,5.05,18.05,5.0,776.00,487.8
2020-07-01,08:30:00,DRY,4.37,18.10,5.0,776.00,510.0
2020-07-01,08:35:00,DRY,5.90,18.30,5.0,776.00,531.5
2020-07-01,08:40:00,DRY,5.07,18.17,5.0,776.00,553.0
2020-07-01,08:45:00,DRY,3.75,18.45,5.0,776.00,574.8
2020-07-01,08:50:00,DRY,4.40,18.30,5.0,776.00,596.8
2020-07-01,08:55:00,DRY,6.25,18.35,5.5,776.00,619.6
2020-07-01,09:00:00,DRY,5.57,18.30,5.3,776.00,637.0
2020-07-01,09:05:00,DRY,5.30,18.40,5.0,776.00,659.1
2020-07-01,09:10:00,DRY,5.70,18.50,5.7,776.00,678.2
2020-07-01,09:15:00,DRY,6.50,18.60,5.0,776.00,693.8
2020-07-01,09:20:00,DRY,3.80,18.73,5.0,776.33,715.5
2020-07-01,09:25:00,DRY,4.00,18.80,5.0,776.00,735.5
2020-07-01,09:30:00,DRY,4.73,18.67,5.3,776.67,751.1
2020-07-01,09:35:00,DRY,6.05,18.85,5.5,776.50,770.6
2020-07-01,09:40:00,DRY,3.17,18.97,5.3,777.00,788.0
2020-07-01,09:45:00,DRY,5.40,19.00,6.0,777.00,806.4
2020-07-01,09:50:00,DRY,2.80,19.27,5.7,776.67,826.6
2020-07-01,09:55:00,DRY,7.50,19.35,5.5,777.00,840.4
2020-07-01,10:00:00,DRY,6.43,19.30,6.0,777.00,856.6
2020-07-01,10:05:00,DRY,4.40,19.40,6.0,777.00,874.9
2020-07-01,10:10:00,DRY,5.20,19.40,6.0,777.00,889.1
2020-07-01,10:15:00,DRY,4.45,19.60,6.0,777.00,904.5
2020-07-01,10:20:00,DRY,5.47,19.60,6.0,777.00,918.6
2020-07-01,10:25:00,DRY,5.25,19.55,5.5,777.00,932.0
2020-07-01,10:30:00,DRY,4.60,19.60,6.0,777.00,946.2
2020-07-01,10:35:00,DRY,4.45,19.70,6.0,777.00,961.6
2020-07-01,10:40:00,DRY,4.67,20.07,6.0,777.00,975.4
2020-07-01,10:45:00,DRY,5.40,20.45,6.0,777.00,989.5
2020-07-01,10:50:00,DRY,5.90,20.40,5.7,777.00,1000.9
2020-07-01,10:55:00,DRY,3.25,20.00,6.0,777.00,1016.2
2020-07-01,11:00:00,DRY,3.47,20.30,6.3,777.00,1027.4
2020-07-01,11:05:00,DRY,3.25,20.30,6.0,777.00,1041.0
2020-07-01,11:10:00,DRY,4.33,20.47,6.0,777.00,1051.9
2020-07-01,11:15:00,DRY,5.20,20.35,5.5,777.00,1064.1
2020-07-01,11:20:00,DRY,5.43,20.33,6.7,777.00,1072.9
2020-07-01,11:25:00,DRY,2.90,20.60,7.0,777.00,1079.9
2020-07-01,11:30:00,DRY,3.90,20.80,7.0,777.00,1091.7
2020-07-01,11:35:00,DRY,4.10,20.60,7.0,777.00,1098.9
2020-07-01,11:40:00,DRY,4.07,20.63,7.3,777.00,1107.3
2020-07-01,11:45:00,DRY,4.35,21.15,7.0,777.00,1115.4
2020-07-01,11:50:00,DRY,5.93,21.07,6.3,777.00,1121.2
2020-07-01,11:55:00,DRY,5.00,21.05,7.0,777.00,1128.0
2020-07-01,12:00:00,DRY,5.07,21.13,7.7,777.00,1133.2
2020-07-01,12:05:00,DRY,4.20,21.15,9.5,777.00,1137.7
2020-07-01,12:10:00,DRY,4.43,21.27,8.3,777.00,1145.5
2020-07-01,12:15:00,DRY,2.45,21.55,6.0,777.00,1149.4
2020-07-01,12:20:00,DRY,3.00,21.83,7.3,777.67,1154.5
2020-07-01,12:25:00,DRY,3.95,21.75,10.5,778.00,1158.1
2020-07-01,12:30:00,DRY,2.83,21.87,7.7,778.00,1162.7
2020-07-01,12:35:00,DRY,8.50,21.85,7.5,777.00,1163.3
2020-07-01,12:40:00,DRY,3.43,22.13,7.7,777.33,1165.9
2020-07-01,12:45:00,DRY,5.90,21.75,8.5,777.50,1166.5
2020-07-01,12:50:00,DRY,4.90,21.97,8.0,777.67,1168.4
2020-07-01,12:55:00,DRY,9.20,21.75,9.5,777.00,1169.3
2020-07-01,13:00:00,DRY,5.47,21.67,9.0,778.00,1170.0
2020-07-01,13:05:00,DRY,2.75,21.90,8.5,778.00,1172.8
2020-07-01,13:10:00,DRY,3.27,22.13,8.7,778.00,1175.5
2020-07-01,13:15:00,DRY,4.70,22.40,9.5,778.00,1173.3
2020-07-01,13:20:00,DRY,4.90,22.10,10.0,778.00,1174.1
2020-07-01,13:25:00,DRY,3.50,22.10,10.5,778.00,1171.2
2020-07-01,13:30:00,DRY,2.50,22.20,10.0,778.00,1170.3
2020-07-01,13:35:00,DRY,4.80,22.00,11.0,778.00,1166.5
2020-07-01,13:40:00,DRY,4.53,21.53,11.7,778.00,1166.6
2020-07-01,13:45:00,DRY,4.25,21.80,10.5,778.00,1165.9
2020-07-01,13:50:00,DRY,4.60,22.07,11.0,778.00,1184.0
2020-07-01,13:55:00,DRY,3.70,21.75,12.5,778.00,1160.2
2020-07-01,14:00:00,DRY,4.43,21.50,12.7,778.00,1159.1
2020-07-01,14:05:00,DRY,4.45,21.45,12.5,778.00,1158.5
2020-07-01,14:10:00,DRY,4.10,21.53,11.7,778.00,1155.5
2020-07-01,14:15:00,DRY,3.70,21.20,15.0,778.00,1156.8
2020-07-01,14:20:00,DRY,3.53,21.17,14.3,778.00,1166.6
2020-07-01,14:25:00,DRY,6.65,21.85,11.0,778.00,1167.2
2020-07-01,14:30:00,DRY,4.30,22.20,7.7,778.00,1152.5
2020-07-01,14:35:00,DRY,6.35,22.05,10.5,778.00,1145.7
2020-07-01,14:40:00,DRY,4.17,22.13,8.7,778.00,1091.4
2020-07-01,14:45:00,DRY,1.90,22.45,10.0,778.00,1119.4
2020-07-01,14:50:00,DRY,3.50,22.50,12.7,778.00,1105.9
2020-07-01,14:55:00,DRY,2.55,22.45,8.5,778.00,1104.6
2020-07-01,15:00:00,DRY,4.13,22.47,11.3,778.00,1112.4
2020-07-01,15:05:00,DRY,4.00,22.40,9.5,778.00,1100.5
2020-07-01,15:10:00,DRY,5.03,22.27,13.3,778.00,1111.9
2020-07-01,15:15:00,DRY,4.75,22.10,11.0,778.00,849.6
2020-07-01,15:20:00,DRY,3.67,21.97,11.0,778.00,1048.0
2020-07-01,15:25:00,DRY,4.50,22.15,8.5,778.00,1091.1
2020-07-01,15:30:00,DRY,4.13,21.93,8.7,778.00,1040.0
2020-07-01,15:35:00,DRY,3.55,22.40,9.0,778.00,1019.5
2020-07-01,15:40:00,DRY,4.73,22.60,7.0,778.00,1006.4
2020-07-01,15:45:00,DRY,5.05,22.55,8.0,778.00,977.0
2020-07-01,15:50:00,DRY,2.87,22.33,7.7,778.00,973.5
2020-07-01,15:55:00,DRY,3.50,22.70,7.0,778.00,973.9
2020-07-01,16:00:00,DRY,3.53,22.50,7.3,778.00,833.9
2020-07-01,16:05:00,DRY,2.80,22.95,6.5,778.00,898.8
2020-07-01,16:10:00,DRY,3.43,22.80,7.3,778.00,904.8
2020-07-01,16:15:00,DRY,2.70,23.30,6.0,778.00,886.9
2020-07-01,16:20:00,DRY,3.43,22.77,7.3,778.00,869.8
2020-07-01,16:25:00,DRY,2.55,23.00,6.5,777.50,852.9
2020-07-01,16:30:00,DRY,4.47,22.93,8.0,778.00,833.5
2020-07-01,16:35:00,DRY,4.50,23.25,9.0,778.00,819.5
2020-07-01,16:40:00,DRY,3.13,23.03,7.7,777.67,797.9
2020-07-01,16:45:00,DRY,3.40,22.85,8.5,778.00,775.9
2020-07-01,16:50:00,DRY,3.97,23.17,8.7,778.00,763.2
2020-07-01,16:55:00,DRY,6.45,23.30,7.5,777.00,738.0
2020-07-01,17:00:00,DRY,4.87,23.10,8.7,778.00,725.0
2020-07-01,17:05:00,DRY,4.55,22.90,8.5,777.50,712.0
2020-07-01,17:10:00,DRY,2.50,22.63,9.0,778.00,687.4
2020-07-01,17:15:00,DRY,3.50,23.05,8.0,778.00,665.5
2020-07-01,17:20:00,DRY,5.67,23.20,8.7,777.33,661.7
2020-07-01,17:25:00,DRY,3.90,22.60,9.5,778.00,494.5
2020-07-01,17:30:00,DRY,5.23,22.70,8.7,777.00,572.4
2020-07-01,17:35:00,DRY,4.95,22.80,9.5,777.50,434.1
2020-07-01,17:40:00,DRY,6.27,22.30,9.0,777.33,388.1
2020-07-01,17:45:00,DRY,3.80,22.40,9.0,778.00,550.0
2020-07-01,17:50:00,DRY,3.80,22.43,8.3,777.33,504.8
2020-07-01,17:55:00,DRY,3.25,22.40,9.0,777.50,491.8
2020-07-01,18:00:00,DRY,5.57,22.10,8.7,777.00,341.8
2020-07-01,18:05:00,DRY,4.50,22.10,9.0,777.00,464.6
2020-07-01,18:10:00,DRY,4.53,22.20,8.7,777.67,398.2
2020-07-01,18:15:00,DRY,5.95,21.75,8.0,777.00,386.7
2020-07-01,18:20:00,DRY,5.27,21.87,8.0,777.00,379.4
2020-07-01,18:25:00,DRY,4.60,21.80,8.0,777.00,360.3
2020-07-01,18:30:00,DRY,5.07,21.77,8.3,778.00,335.7
2020-07-01,18:35:00,DRY,4.30,21.75,8.5,777.50,301.4
2020-07-01,18:40:00,DRY,4.60,21.63,9.0,778.00,288.6
2020-07-01,18:45:00,DRY,3.65,21.75,8.5,778.00,267.2
2020-07-01,18:50:00,DRY,6.33,21.77,8.0,778.00,244.0